Back to catalog

SJ-11-07

AliveScienceSSO
NORAD 40261·PAYLOAD·🇨🇳 China

Launched Sep 28, 2014 from Jiuquan Satellite Launch Center

Loading…

Next Passes (next 24 hours)

TLE

FreshSource: Space-Track

Epoch: Sep 14, 2026, 15:32 UTC

1 40261U 14059A   26257.64746198  .00000393  00000-0  84136-4 0  9990
2 40261  97.9864 324.2458 0009591 222.9297 137.1158 14.63809932638001

Track SJ-11-07 in real time with AllMySat

Download on the App Store